[[{"header":{"parameterUnit":"m.s-1","parameterCategory":1,"la1":30.2991,"la2":30.254,"lo1":-89.0895,"lo2":-89.0444,"dy":0.0017,"dx":0.0017,"nx":28,"ny":28,"refTime":"2024-10-02T21:00:00:Z","depth":0,"parameterNumber":2,"parameterNumberName":"U-component_of_WINDS"},"data":[0,0,0,0,0,0,0,0,0,0,0,0,0,0,0,0,0,0,0,0,0,0,0,0,0,0,0,0,0,0,0,0,0,0,0,0,0,0,0,0,0,0,0,0,0,0,0,0,0,0,0,0,0,0,0,0,0,0,-2.9388,-2.9386,0,-2.9205,-2.9203,-2.9201,-2.9024,-2.9022,-2.9019,-2.9017,-2.8829,-2.8826,-2.8823,0,0,0,0,0,0,0,0,0,0,0,0,0,-2.9583,-2.9581,-2.9388,-2.9386,-2.9384,-2.9206,-2.9203,-2.9201,-2.9024,-2.9021,-2.9019,-2.9016,-2.883,-2.8826,-2.8823,0,0,0,0,0,0,0,0,0,0,0,0,0,-2.946,-2.958,-2.9389,-2.9274,-2.9262,-2.9206,-2.9203,-2.92,-2.9025,-2.9021,-2.9018,-2.9015,-2.8831,-2.8827,-2.8823,-2.8865,0,0,-2.8809,-2.8807,0,0,0,0,0,0,0,0,-2.9467,-2.9453,-2.9293,-2.9282,-2.9268,-2.9134,-2.9203,-2.9088,-2.9026,-2.9115,-2.9017,-2.9013,-2.8933,-2.892,-2.8893,-2.8856,-2.8848,-2.8809,-2.8806,-2.8804,-2.8803,0,0,0,0,0,0,0,-2.9476,-2.946,-2.9316,-2.9291,-2.9276,-2.9232,-2.921,-2.918,-2.9045,-2.9107,-2.9094,-2.9074,-2.8926,-2.8898,-2.8888,-2.8845,-2.8809,-2.8805,-2.8803,-2.8801,-2.8832,-2.8835,0,0,0,0,0,0,-2.9502,-2.9468,-2.9322,-2.931,-2.9361,-2.9231,-2.9207,-2.9181,-2.9045,-2.9021,-2.9078,-2.9067,-2.8907,-2.8893,-2.888,-2.8919,-2.8805,-2.88,-2.8798,-2.8829,-2.8833,-2.8836,0,0,0,0,0,0,-2.9507,-2.9491,-2.9329,-2.9385,-2.9361,-2.9231,-2.9203,-2.9179,-2.9151,-2.9023,-2.8998,-2.9074,-2.8904,-2.8886,-2.887,-2.8911,-2.8799,-2.8795,-2.8824,-2.883,-2.8835,-2.9,0,0,0,0,0,0,-2.9513,-2.9493,-2.9508,-2.9387,-2.9359,-2.9322,-2.9205,-2.9178,-2.9144,-2.9128,-2.9013,-2.8991,-2.89,-2.8877,-2.8866,-2.8903,-2.8791,-2.882,-2.8827,-2.8833,-2.899,-2.901,-2.9027,0,0,0,0,0,-2.9521,-2.9562,-2.951,-2.9493,-2.9375,-2.9325,-2.9309,-2.9203,-2.9148,-2.9161,-2.908,-2.8995,-2.8909,-2.8877,-2.8862,-2.8899,-2.8817,-2.8825,-2.8832,-2.8982,-2.9006,-2.9026,0,0,0,0,0,0,-2.969,-2.9544,-2.9484,-2.9488,-2.942,-2.9295,-2.9309,-2.9232,-2.9179,-2.9166,-2.9037,-2.9013,-2.9011,-2.8953,-2.892,-2.8932,-2.8851,-2.8856,-2.897,-2.8992,-2.901,-2.9023,-2.8788,0,0,0,0,0,-2.9729,-2.97,-2.9574,-2.9589,-2.9558,-2.944,-2.9414,-2.9339,-2.9263,-2.9234,-2.915,-2.908,-2.9037,-2.9011,-2.8965,-2.8982,-2.8953,-2.9,-2.9018,-2.9034,-2.9039,-2.9043,-2.9062,-2.8862,-2.8861,-2.8861,0,0,-2.9806,-2.9723,-2.9712,-2.9621,-2.9559,-2.9533,-2.9417,-2.9393,-2.9372,-2.923,-2.9208,-2.9146,-2.9059,-2.9059,-2.9055,-2.9011,-2.9089,-2.9044,-2.9057,-2.9053,-2.9053,-2.9072,-2.9089,-2.8867,-2.8866,-2.8865,0,0,-2.9933,-2.9868,-2.9873,-2.9814,-2.9723,-2.9645,-2.9647,-2.9533,-2.9486,-2.9463,-2.9355,-2.9329,-2.9257,-2.92,-2.9161,-2.9269,-2.9188,-2.9257,-2.9353,-2.9358,-2.9374,-2.9387,-2.9425,-2.944,-2.9264,-2.9264,-2.9264,0,-3.0041,-2.9997,-2.9885,-2.9868,-2.9831,-2.9702,-2.9706,-2.9654,-2.9553,-2.953,-2.9482,-2.939,-2.9323,-2.9308,-2.9334,-2.9308,-2.9305,-2.9269,-2.9381,-2.9393,-2.9404,-2.9438,-2.9453,-2.9273,-2.9272,-2.9271,-2.927,0,-3.0133,-3.0104,-3.0119,-3.0025,-2.9989,-2.9983,-2.987,-2.9848,-2.9777,-2.9703,-2.9682,-2.9597,-2.953,-2.9522,-2.9451,-2.9497,-2.9472,-2.9405,-2.932,-2.9434,-2.9464,-2.9476,-2.9286,-2.9282,-2.928,-2.9278,0,0,-3.036,-3.0205,-3.0212,-3.0168,-3.0059,-3.0034,-3.0023,-2.9958,-2.9941,-2.9876,-2.9862,-2.9806,-2.9743,-2.97,-2.9623,-2.9628,-2.9718,-2.9559,-2.9555,-2.9591,-2.9761,-2.9811,-2.9828,-2.9665,-2.9667,-2.9668,-2.9768,0,-3.0467,-3.0438,-3.0338,-3.0339,-3.031,-3.0189,-3.0178,-3.011,-3.0042,-3.0008,-2.9932,-2.9894,-2.9815,-2.9788,-2.9788,-2.9707,-2.975,-2.9699,-2.965,-2.9649,-2.9674,-2.9844,-2.9896,-2.9994,-2.9779,-2.9781,-2.9782,0,-3.0588,-3.0532,-3.053,-3.0422,-3.0406,-3.0399,-3.0332,-3.0301,-3.0222,-3.0172,-3.0125,-3.0039,-3.002,-2.9943,-2.9914,-2.9882,-2.9856,-2.9814,-2.9815,-2.9805,-2.9722,-2.9837,-3.0023,-3.0038,-2.98,-2.9799,-2.9797,0,-3.0752,-3.0676,-3.0664,-3.0631,-3.0505,-3.0503,-3.045,-3.0367,-3.0336,-3.0278,-3.0255,-3.0197,-3.0164,-3.012,-3.0021,-2.9974,-3.0003,-2.9918,-2.996,-2.9963,-2.997,-2.997,-3.0153,-2.9957,-2.9957,-2.9957,-2.9956,0,-3.0881,-3.0884,-3.0736,-3.0729,-3.073,-3.0615,-3.0619,-3.0555,-3.0483,-3.0461,-3.0353,-3.0335,-3.0205,-3.0173,-3.0095,-3.0083,-3.0069,-3.0028,-3.0007,-3.0037,-3.0042,-3.0017,-3.0007,-2.996,-2.996,-2.9959,-2.9958,0,-3.1063,-3.0964,-3.0943,-3.0827,-3.0798,-3.0803,-3.0703,-3.0692,-3.0618,-3.0592,-3.058,-3.0464,-3.042,-3.0317,-3.0245,-3.0193,-3.0201,-3.0163,-3.0228,-3.0214,-3.0261,-3.0258,-3.0433,-3.045,-3.0246,-3.0248,-3.025,0,-3.115,-3.115,-3.1034,-3.1012,-3.0964,-3.093,-3.0897,-3.0785,-3.0755,-3.0666,-3.0666,-3.0614,-3.0565,-3.0501,-3.041,-3.0355,-3.0315,-3.038,-3.0306,-3.0336,-3.0314,-3.0315,-3.0314,-3.0396,-3.0399,-3.0401,-3.0403,0,-3.1316,-3.1268,-3.1224,-3.1165,-3.1129,-3.1076,-3.1018,-3.1006,-3.088,-3.0852,-3.0806,-3.0769,-3.0697,-3.0646,-3.0578,-3.0523,-3.0442,-3.0428,-3.0434,-3.0463,-3.05,-3.048,-3.0271,-3.0424,-3.0421,-3.042,-3.0419,-3.0418,-3.1452,-3.1446,-3.1364,-3.1319,-3.1264,-3.1212,-3.1196,-3.1121,-3.108,-3.1013,-3.095,-3.091,-3.0831,-3.0731,-3.0683,-3.065,-3.0609,-3.0619,-3.0621,-3.0625,-3.0638,-3.0508,-3.0638,-3.0637,-3.0636,-3.0636,-3.0635,0,-3.1611,-3.1552,-3.1513,-3.1435,-3.14,-3.1329,-3.1261,-3.1236,-3.1203,-3.1137,-3.1092,-3.104,-3.0991,-3.0897,-3.084,-3.0832,-3.0794,-3.0821,-3.0819,-3.0808,-3.0678,-3.0678,-3.0853,-3.0853,-3.0853,-3.0853,-3.0853,-3.0853,-3.1689,-3.1675,-3.1618,-3.1575,-3.1516,-3.1477,-3.1444,-3.1396,-3.1343,-3.1289,-3.1248,-3.1188,-3.1111,-3.1047,-3.0999,-3.0973,-3.0956,-3.0995,-3.0957,-3.0838,-3.0817,-3.0797,-3.0796,-3.0993,-3.0993,-3.1089,-3.109,-3.1091]},{"header":{"parameterUnit":"m.s-1","parameterCategory":1,"la1":30.2991,"la2":30.254,"lo1":-89.0895,"lo2":-89.0444,"dy":0.0017,"dx":0.0017,"nx":28,"ny":28,"refTime":"2024-10-02T21:00:00:Z","depth":0,"parameterNumber":3,"parameterNumberName":"V-component_of_WINDS"},"data":[0,0,0,0,0,0,0,0,0,0,0,0,0,0,0,0,0,0,0,0,0,0,0,0,0,0,0,0,0,0,0,0,0,0,0,0,0,0,0,0,0,0,0,0,0,0,0,0,0,0,0,0,0,0,0,0,0,0,-0.4706,-0.4709,0,-0.4988,-0.4991,-0.4994,-0.5027,-0.5024,-0.5021,-0.5018,-0.5316,-0.5326,-0.5336,0,0,0,0,0,0,0,0,0,0,0,0,0,-0.4201,-0.421,-0.4705,-0.4709,-0.4712,-0.4987,-0.4991,-0.4995,-0.5027,-0.5024,-0.502,-0.5017,-0.5312,-0.5325,-0.5337,0,0,0,0,0,0,0,0,0,0,0,0,0,-0.4445,-0.4213,-0.4705,-0.4761,-0.4769,-0.4986,-0.4991,-0.4996,-0.5028,-0.5024,-0.5019,-0.5016,-0.5308,-0.5323,-0.5339,-0.5521,0,0,-0.5387,-0.5394,0,0,0,0,0,0,0,0,-0.4431,-0.4464,-0.475,-0.4758,-0.4767,-0.4967,-0.4922,-0.5172,-0.5029,-0.493,-0.5018,-0.5013,-0.5204,-0.5228,-0.529,-0.5535,-0.5548,-0.5389,-0.5398,-0.5405,-0.541,0,0,0,0,0,0,0,-0.4414,-0.4452,-0.4817,-0.4754,-0.4765,-0.4775,-0.4805,-0.497,-0.5088,-0.4938,-0.4941,-0.4974,-0.5208,-0.5275,-0.5298,-0.5552,-0.5388,-0.5402,-0.5412,-0.5418,-0.596,-0.5965,0,0,0,0,0,0,-0.4386,-0.4438,-0.4808,-0.4826,-0.4585,-0.4787,-0.4821,-0.4908,-0.5086,-0.5109,-0.4977,-0.4974,-0.525,-0.5279,-0.5308,-0.5534,-0.5405,-0.542,-0.5429,-0.5955,-0.5961,-0.5967,0,0,0,0,0,0,-0.4375,-0.4419,-0.4797,-0.4633,-0.4681,-0.48,-0.4898,-0.4915,-0.4983,-0.5115,-0.5137,-0.5024,-0.5248,-0.5286,-0.5467,-0.5545,-0.5427,-0.5441,-0.595,-0.5957,-0.5964,-0.5987,0,0,0,0,0,0,-0.436,-0.4415,-0.4484,-0.4634,-0.469,-0.495,-0.4902,-0.4924,-0.5009,-0.5008,-0.5165,-0.5187,-0.5248,-0.5444,-0.5483,-0.5565,-0.5454,-0.5943,-0.5953,-0.5962,-0.598,-0.5994,-0.6006,0,0,0,0,0,-0.4342,-0.4481,-0.4488,-0.4532,-0.4779,-0.4954,-0.4987,-0.5052,-0.5015,-0.5087,-0.5171,-0.5182,-0.5528,-0.5462,-0.5507,-0.5594,-0.5939,-0.595,-0.5961,-0.5974,-0.5991,-0.6006,0,0,0,0,0,0,-0.4342,-0.4502,-0.4511,-0.4702,-0.4814,-0.4959,-0.5053,-0.5068,-0.5195,-0.519,-0.5267,-0.5302,-0.548,-0.5555,-0.5477,-0.5779,-0.573,-0.5751,-0.5725,-0.5742,-0.5755,-0.5736,-0.5467,0,0,0,0,0,-0.4363,-0.449,-0.4624,-0.478,-0.4835,-0.4933,-0.5013,-0.5052,-0.5172,-0.5221,-0.5319,-0.5437,-0.5573,-0.5661,-0.5793,-0.5988,-0.6024,-0.607,-0.6083,-0.6094,-0.6112,-0.6221,-0.6243,-0.6003,-0.6003,-0.6003,0,0,-0.4411,-0.4514,-0.459,-0.4782,-0.4874,-0.5005,-0.4974,-0.5115,-0.5214,-0.5243,-0.5421,-0.5495,-0.5633,-0.5821,-0.591,-0.589,-0.6185,-0.6108,-0.6115,-0.6128,-0.6235,-0.6257,-0.6277,-0.601,-0.6009,-0.6008,0,0,-0.4565,-0.4654,-0.4794,-0.4885,-0.5022,-0.5086,-0.5118,-0.5261,-0.5312,-0.5489,-0.5514,-0.5633,-0.5865,-0.5961,-0.6041,-0.6225,-0.624,-0.6266,-0.6337,-0.6442,-0.6461,-0.6479,-0.6546,-0.6569,-0.6283,-0.6283,-0.6283,0,-0.4608,-0.4805,-0.4865,-0.5004,-0.5088,-0.5116,-0.5259,-0.5345,-0.5519,-0.5578,-0.5551,-0.584,-0.5935,-0.6147,-0.6191,-0.6254,-0.6296,-0.6251,-0.6453,-0.6471,-0.6488,-0.6554,-0.6579,-0.6285,-0.6285,-0.6285,-0.6285,0,-0.4851,-0.4987,-0.5084,-0.5247,-0.5342,-0.5483,-0.5565,-0.5654,-0.5683,-0.575,-0.5931,-0.6043,-0.6198,-0.625,-0.6283,-0.6467,-0.645,-0.6437,-0.639,-0.6512,-0.6575,-0.6601,-0.6289,-0.6288,-0.6287,-0.6287,0,0,-0.502,-0.521,-0.5245,-0.5319,-0.547,-0.5577,-0.5718,-0.5866,-0.5942,-0.6059,-0.6181,-0.6374,-0.6362,-0.6451,-0.6494,-0.6585,-0.6726,-0.6562,-0.6566,-0.659,-0.6937,-0.6949,-0.6977,-0.6734,-0.6739,-0.6743,-0.6926,0,-0.5193,-0.5443,-0.5499,-0.5716,-0.5842,-0.5868,-0.5991,-0.6097,-0.6162,-0.628,-0.6353,-0.6489,-0.6461,-0.6516,-0.6607,-0.6689,-0.6797,-0.6676,-0.6851,-0.6857,-0.682,-0.7009,-0.7023,-0.7191,-0.6951,-0.6955,-0.6958,0,-0.5431,-0.555,-0.5778,-0.591,-0.5965,-0.6075,-0.6214,-0.6325,-0.6446,-0.6487,-0.6584,-0.6616,-0.6765,-0.6706,-0.6913,-0.6829,-0.6903,-0.6954,-0.6962,-0.6985,-0.6918,-0.704,-0.7246,-0.7272,-0.6997,-0.6994,-0.6992,0,-0.5534,-0.5751,-0.5915,-0.5978,-0.6135,-0.6211,-0.6281,-0.6397,-0.6481,-0.6603,-0.6659,-0.6796,-0.6873,-0.698,-0.7048,-0.6999,-0.725,-0.7197,-0.729,-0.7289,-0.7347,-0.7343,-0.7571,-0.7387,-0.7387,-0.7386,-0.7386,0,-0.5725,-0.5864,-0.5963,-0.6065,-0.6221,-0.6283,-0.6437,-0.6507,-0.6609,-0.6726,-0.6755,-0.6864,-0.6946,-0.7066,-0.712,-0.7284,-0.7318,-0.7356,-0.737,-0.7356,-0.7352,-0.7409,-0.7401,-0.7393,-0.7392,-0.739,-0.7389,0,-0.5869,-0.594,-0.6122,-0.6253,-0.6289,-0.6399,-0.6513,-0.6613,-0.6675,-0.6822,-0.6861,-0.696,-0.7103,-0.718,-0.736,-0.7396,-0.758,-0.7586,-0.7539,-0.7546,-0.7635,-0.7627,-0.7912,-0.7953,-0.7739,-0.774,-0.7742,0,-0.5988,-0.6095,-0.6236,-0.6315,-0.6385,-0.6511,-0.6596,-0.666,-0.6748,-0.6891,-0.6974,-0.7117,-0.7236,-0.7464,-0.7554,-0.7691,-0.7702,-0.7792,-0.7724,-0.7706,-0.7707,-0.7701,-0.7713,-0.7806,-0.7808,-0.7809,-0.781,0,-0.6193,-0.6222,-0.6342,-0.6474,-0.6574,-0.6682,-0.6789,-0.6851,-0.6933,-0.703,-0.7174,-0.7266,-0.7447,-0.759,-0.7733,-0.7806,-0.7824,-0.783,-0.7859,-0.7849,-0.7819,-0.7839,-0.7576,-0.7825,-0.7823,-0.7822,-0.7822,-0.7821,-0.6331,-0.6427,-0.654,-0.6673,-0.6758,-0.6856,-0.6956,-0.7029,-0.715,-0.7301,-0.733,-0.7484,-0.7599,-0.7793,-0.7869,-0.7991,-0.7973,-0.8015,-0.8027,-0.8037,-0.8042,-0.7794,-0.8017,-0.8016,-0.8016,-0.8016,-0.8016,0,-0.654,-0.6612,-0.6733,-0.6879,-0.6983,-0.6983,-0.7101,-0.7189,-0.7322,-0.7427,-0.7541,-0.7707,-0.7844,-0.7942,-0.8082,-0.8161,-0.8172,-0.8196,-0.8193,-0.821,-0.8049,-0.801,-0.8184,-0.8184,-0.8184,-0.8184,-0.8184,-0.8184,-0.6661,-0.6823,-0.6865,-0.7069,-0.7142,-0.729,-0.7357,-0.7447,-0.7531,-0.7713,-0.7826,-0.7887,-0.799,-0.8136,-0.8263,-0.8288,-0.834,-0.8363,-0.839,-0.8239,-0.8221,-0.8204,-0.8169,-0.8373,-0.8373,-0.8541,-0.8543,-0.8544]}]]